| time (UTC) | temp F | wind direction | speed MPH | gust MPH | rain 1hr in | rain 24hr in | rain mn in | humidity % | barometer mb |
| 20260905191001 | 97 | 197 | 6.0 | 10.0 | 0.00 | 0.00 | 0.00 | 41 | 1013.3 |
| 20260905190459 | 97 | 220 | 4.0 | 11.0 | 0.00 | 0.00 | 0.00 | 41 | 1013.5 |
| 20260905185957 | 97 | 127 | 1.0 | 11.0 | 0.00 | 0.00 | 0.00 | 42 | 1013.6 |
| 20260905185453 | 98 | 208 | 6.0 | 9.0 | 0.00 | 0.00 | 0.00 | 41 | 1013.4 |
| 20260905184951 | 97 | 197 | 7.0 | 9.0 | 0.00 | 0.00 | 0.00 | 41 | 1013.7 |
| 20260905184447 | 97 | 167 | 2.0 | 8.0 | 0.00 | 0.00 | 0.00 | 41 | 1013.7 |
| 20260905183945 | 97 | 231 | 3.0 | 8.0 | 0.00 | 0.00 | 0.00 | 42 | 1013.7 |
| 20260905183440 | 96 | 244 | 2.0 | 5.0 | 0.00 | 0.00 | 0.00 | 42 | 1013.6 |
| 20260905182935 | 96 | 92 | 5.0 | 7.0 | 0.00 | 0.00 | 0.00 | 42 | 1013.9 |
| 20260905182434 | 96 | 95 | 4.0 | 8.0 | 0.00 | 0.00 | 0.00 | 41 | 1013.9 |
| 20260905181930 | 96 | 186 | 2.0 | 6.0 | 0.00 | 0.00 | 0.00 | 41 | 1013.9 |
| 20260905181429 | 96 | 315 | 1.0 | 8.0 | 0.00 | 0.00 | 0.00 | 42 | 1013.9 |
| 20260905180929 | 96 | 93 | 5.0 | 9.0 | 0.00 | 0.00 | 0.00 | 40 | 1014.1 |
| 20260905180424 | 96 | 76 | 2.0 | 6.0 | 0.00 | 0.00 | 0.00 | 41 | 1014.3 |
| 20260905175918 | 95 | 103 | 7.0 | 8.0 | 0.00 | 0.00 | 0.00 | 42 | 1014.3 |
| 20260905175417 | 95 | 89 | 6.0 | 7.0 | 0.00 | 0.00 | 0.00 | 41 | 1014.4 |
| 20260905174913 | 95 | 74 | 4.0 | 9.0 | 0.00 | 0.00 | 0.00 | 42 | 1014.5 |
| 20260905174408 | 95 | 95 | 4.0 | 7.0 | 0.00 | 0.00 | 0.00 | 42 | 1014.5 |
| 20260905173904 | 94 | 72 | 3.0 | 12.0 | 0.00 | 0.00 | 0.00 | 44 | 1014.5 |
| 20260905173400 | 95 | 72 | 5.0 | 9.0 | 0.00 | 0.00 | 0.00 | 44 | 1014.6 |
| 20260905172855 | 96 | 108 | 7.0 | 8.0 | 0.00 | 0.00 | 0.00 | 43 | 1014.8 |
| 20260905172353 | 95 | 40 | 5.0 | 7.0 | 0.00 | 0.00 | 0.00 | 44 | 1014.7 |
| 20260905171849 | 94 | 161 | 5.0 | 8.0 | 0.00 | 0.00 | 0.00 | 45 | 1014.5 |
| 20260905171345 | 95 | 74 | 6.0 | 9.0 | 0.00 | 0.00 | 0.00 | 45 | 1014.6 |
| 20260905170842 | 95 | 174 | 3.0 | 6.0 | 0.00 | 0.00 | 0.00 | 46 | 1014.8 |
| 20260905170338 | 94 | 177 | 4.0 | 8.0 | 0.00 | 0.00 | 0.00 | 45 | 1014.7 |
| 20260905165836 | 93 | 60 | 4.0 | 10.0 | 0.00 | 0.00 | 0.00 | 49 | 1014.6 |
| 20260905165332 | 93 | 83 | 8.0 | 13.0 | 0.00 | 0.00 | 0.00 | 46 | 1014.8 |
| 20260905164826 | 94 | 42 | 2.0 | 5.0 | 0.00 | 0.00 | 0.00 | 47 | 1014.9 |
| 20260905164321 | 94 | 203 | 3.0 | 6.0 | 0.00 | 0.00 | 0.00 | 46 | 1014.8 |
| 20260905163817 | 94 | 241 | 4.0 | 8.0 | 0.00 | 0.00 | 0.00 | 45 | 1014.8 |
| 20260905163313 | 95 | 145 | 3.0 | 4.0 | 0.00 | 0.00 | 0.00 | 45 | 1015.0 |
| 20260905162809 | 94 | 168 | 2.0 | 3.0 | 0.00 | 0.00 | 0.00 | 45 | 1014.8 |
| 20260905162309 | 93 | 111 | 3.0 | 6.0 | 0.00 | 0.00 | 0.00 | 46 | 1014.7 |
| 20260905161803 | 93 | 115 | 1.0 | 4.0 | 0.00 | 0.00 | 0.00 | 46 | 1014.8 |
| 20260905161302 | 93 | 130 | 3.0 | 5.0 | 0.00 | 0.00 | 0.00 | 47 | 1014.9 |
| 20260905160801 | 93 | 201 | 4.0 | 6.0 | 0.00 | 0.00 | 0.00 | 45 | 1014.9 |
| 20260905160255 | 93 | 99 | 3.0 | 5.0 | 0.00 | 0.00 | 0.00 | 48 | 1014.9 |
| 20260905155750 | 93 | 125 | 3.0 | 3.0 | 0.00 | 0.00 | 0.00 | 48 | 1015.1 |
| 20260905155248 | 92 | 74 | 0.0 | 4.0 | 0.00 | 0.00 | 0.00 | 50 | 1014.8 |
| 20260905154742 | 92 | 60 | 1.0 | 4.0 | 0.00 | 0.00 | 0.00 | 52 | 1014.9 |
| 20260905154238 | 92 | 253 | 2.0 | 4.0 | 0.00 | 0.00 | 0.00 | 53 | 1014.8 |
| 20260905153734 | 91 | 52 | 2.0 | 3.0 | 0.00 | 0.00 | 0.00 | 55 | 1014.9 |
| 20260905153230 | 90 | 181 | 2.0 | 6.0 | 0.00 | 0.00 | 0.00 | 56 | 1015.0 |
| 20260905152725 | 90 | 350 | 2.0 | 5.0 | 0.00 | 0.00 | 0.00 | 56 | 1014.7 |
| 20260905152224 | 90 | 198 | 3.0 | 6.0 | 0.00 | 0.00 | 0.00 | 56 | 1014.9 |
| 20260905151718 | 90 | 262 | 3.0 | 4.0 | 0.00 | 0.00 | 0.00 | 58 | 1014.8 |
| 20260905151215 | 90 | 205 | 5.0 | 6.0 | 0.00 | 0.00 | 0.00 | 57 | 1014.8 |
| 20260905150709 | 89 | 212 | 0.0 | 4.0 | 0.00 | 0.00 | 0.00 | 59 | 1014.6 |
| 20260905150208 | 88 | 221 | 2.0 | 5.0 | 0.00 | 0.00 | 0.00 | 61 | 1014.6 |
| 20260905145706 | 88 | 267 | 3.0 | 4.0 | 0.00 | 0.00 | 0.00 | 62 | 1014.6 |
| 20260905145201 | 87 | 215 | 4.0 | 6.0 | 0.00 | 0.00 | 0.00 | 62 | 1014.8 |
| 20260905144701 | 87 | 180 | 3.0 | 6.0 | 0.00 | 0.00 | 0.00 | 62 | 1014.7 |
| 20260905144200 | 87 | 183 | 1.0 | 5.0 | 0.00 | 0.00 | 0.00 | 62 | 1014.9 |
| 20260905143700 | 87 | 259 | 4.0 | 8.0 | 0.00 | 0.00 | 0.00 | 62 | 1014.7 |
| 20260905143154 | 87 | 186 | 3.0 | 6.0 | 0.00 | 0.00 | 0.00 | 64 | 1014.7 |
| 20260905142653 | 86 | 195 | 2.0 | 7.0 | 0.00 | 0.00 | 0.00 | 64 | 1014.7 |
| 20260905142148 | 86 | 196 | 3.0 | 7.0 | 0.00 | 0.00 | 0.00 | 65 | 1014.7 |
| 20260905141643 | 85 | 247 | 6.0 | 6.0 | 0.00 | 0.00 | 0.00 | 66 | 1014.8 |
| 20260905141139 | 85 | 216 | 4.0 | 7.0 | 0.00 | 0.00 | 0.00 | 66 | 1014.6 |
| 20260905140639 | 85 | 227 | 4.0 | 7.0 | 0.00 | 0.00 | 0.00 | 66 | 1014.5 |
| 20260905140139 | 85 | 246 | 4.0 | 6.0 | 0.00 | 0.00 | 0.00 | 67 | 1014.5 |
| 20260905135634 | 85 | 196 | 2.0 | 5.0 | 0.00 | 0.00 | 0.00 | 66 | 1014.8 |
| 20260905135129 | 85 | 264 | 2.0 | 3.0 | 0.00 | 0.00 | 0.00 | 66 | 1014.7 |
| 20260905134624 | 85 | 221 | 3.0 | 4.0 | 0.00 | 0.00 | 0.00 | 67 | 1014.7 |
| 20260905134122 | 85 | 204 | 1.0 | 5.0 | 0.00 | 0.00 | 0.00 | 67 | 1014.7 |
| 20260905133618 | 85 | 149 | 2.0 | 4.0 | 0.00 | 0.00 | 0.00 | 67 | 1014.4 |
| 20260905133113 | 85 | 199 | 3.0 | 4.0 | 0.00 | 0.00 | 0.00 | 67 | 1014.5 |
| 20260905132612 | 85 | 232 | 2.0 | 4.0 | 0.00 | 0.00 | 0.00 | 67 | 1014.4 |
| 20260905132106 | 85 | 303 | 0.0 | 3.0 | 0.00 | 0.00 | 0.00 | 68 | 1014.5 |
| 20260905131602 | 84 | 199 | 3.0 | 3.0 | 0.00 | 0.00 | 0.00 | 68 | 1014.5 |
| 20260905131057 | 84 | 183 | 2.0 | 3.0 | 0.00 | 0.00 | 0.00 | 68 | 1014.3 |
| 20260905130556 | 85 | 181 | 0.0 | 3.0 | 0.00 | 0.00 | 0.00 | 66 | 1014.5 |
| 20260905130051 | 85 | 0 | 0.0 | 2.0 | 0.00 | 0.00 | 0.00 | 67 | 1014.4 |
| 20260905125551 | 83 | 181 | 0.0 | 2.0 | 0.00 | 0.00 | 0.00 | 72 | 1014.4 |
| 20260905125046 | 81 | 242 | 0.0 | 2.0 | 0.00 | 0.00 | 0.00 | 74 | 1014.4 |
| 20260905124543 | 80 | 144 | 0.0 | 2.0 | 0.00 | 0.00 | 0.00 | 75 | 1014.2 |
| 20260905124039 | 79 | 17 | 1.0 | 2.0 | 0.00 | 0.00 | 0.00 | 78 | 1014.0 |
| 20260905123534 | 79 | 328 | 1.0 | 3.0 | 0.00 | 0.00 | 0.00 | 78 | 1014.0 |
| 20260905123031 | 78 | 116 | 1.0 | 1.0 | 0.00 | 0.00 | 0.00 | 80 | 1013.9 |
| 20260905122530 | 78 | 341 | 1.0 | 1.0 | 0.00 | 0.00 | 0.00 | 81 | 1013.9 |
| 20260905122025 | 77 | 298 | 0.0 | 1.0 | 0.00 | 0.00 | 0.00 | 81 | 1013.8 |
| 20260905121520 | 77 | 260 | 0.0 | 2.0 | 0.00 | 0.00 | 0.00 | 81 | 1013.8 |
| 20260905121015 | 77 | 259 | 1.0 | 2.0 | 0.00 | 0.00 | 0.00 | 81 | 1013.7 |
| 20260905120514 | 77 | 214 | 1.0 | 2.0 | 0.00 | 0.00 | 0.00 | 81 | 1013.8 |
| 20260905120011 | 77 | 182 | 1.0 | 3.0 | 0.00 | 0.00 | 0.00 | 80 | 1013.5 |
| 20260905115509 | 77 | 275 | 1.0 | 2.0 | 0.00 | 0.00 | 0.00 | 80 | 1013.6 |
| 20260905115004 | 77 | 149 | 2.0 | 3.0 | 0.00 | 0.00 | 0.00 | 80 | 1013.5 |
| 20260905114503 | 77 | 208 | 0.0 | 3.0 | 0.00 | 0.00 | 0.00 | 81 | 1013.6 |
| 20260905114002 | 77 | 135 | 0.0 | 2.0 | 0.00 | 0.00 | 0.00 | 81 | 1013.6 |
| 20260905113457 | 77 | 152 | 1.0 | 2.0 | 0.00 | 0.00 | 0.00 | 81 | 1013.6 |
| 20260905112953 | 77 | 339 | 0.0 | 1.0 | 0.00 | 0.00 | 0.00 | 81 | 1013.7 |
| 20260905112448 | 77 | 4 | 1.0 | 2.0 | 0.00 | 0.00 | 0.00 | 81 | 1013.5 |
| 20260905111938 | 77 | 44 | 0.0 | 2.0 | 0.00 | 0.00 | 0.00 | 80 | 1013.7 |
| 20260905111437 | 78 | 98 | 0.0 | 2.0 | 0.00 | 0.00 | 0.00 | 79 | 1013.3 |
| 20260905110932 | 78 | 210 | 2.0 | 2.0 | 0.00 | 0.00 | 0.00 | 79 | 1013.3 |
| 20260905110426 | 78 | 282 | 0.0 | 2.0 | 0.00 | 0.00 | 0.00 | 79 | 1013.4 |
| 20260905105926 | 78 | 240 | 1.0 | 2.0 | 0.00 | 0.00 | 0.00 | 78 | 1013.5 |
| 20260905105426 | 78 | 241 | 2.0 | 3.0 | 0.00 | 0.00 | 0.00 | 78 | 1013.5 |
| 20260905104920 | 78 | 228 | 0.0 | 3.0 | 0.00 | 0.00 | 0.00 | 79 | 1013.5 |
| 20260905104416 | 78 | 152 | 2.0 | 4.0 | 0.00 | 0.00 | 0.00 | 79 | 1013.5 |
| 20260905103915 | 77 | 185 | 1.0 | 3.0 | 0.00 | 0.00 | 0.00 | 80 | 1013.6 |
| 20260905103411 | 77 | 99 | 0.0 | 2.0 | 0.00 | 0.00 | 0.00 | 80 | 1013.7 |
| 20260905102907 | 77 | 126 | 0.0 | 2.0 | 0.00 | 0.00 | 0.00 | 80 | 1013.7 |
| 20260905102403 | 77 | 105 | 0.0 | 2.0 | 0.00 | 0.00 | 0.00 | 79 | 1013.6 |
| 20260905101858 | 78 | 156 | 0.0 | 2.0 | 0.00 | 0.00 | 0.00 | 78 | 1013.7 |
| 20260905101356 | 78 | 104 | 1.0 | 2.0 | 0.00 | 0.00 | 0.00 | 78 | 1013.7 |
| 20260905100851 | 78 | 145 | 0.0 | 1.0 | 0.00 | 0.00 | 0.00 | 78 | 1013.6 |
| 20260905100347 | 78 | 307 | 1.0 | 1.0 | 0.00 | 0.00 | 0.00 | 78 | 1013.6 |
| 20260905095840 | 78 | 153 | 0.0 | 1.0 | 0.00 | 0.00 | 0.00 | 77 | 1013.9 |
| 20260905095335 | 78 | 132 | 0.0 | 1.0 | 0.00 | 0.00 | 0.00 | 76 | 1013.5 |
| 20260905094829 | 79 | 115 | 0.0 | 2.0 | 0.00 | 0.00 | 0.00 | 75 | 1013.6 |
| 20260905094325 | 79 | 76 | 0.0 | 2.0 | 0.00 | 0.00 | 0.00 | 75 | 1013.7 |
| 20260905093818 | 79 | 33 | 0.0 | 1.0 | 0.00 | 0.00 | 0.00 | 75 | 1013.7 |
| 20260905093314 | 80 | 352 | 0.0 | 1.0 | 0.00 | 0.00 | 0.00 | 74 | 1013.5 |
| 20260905092810 | 80 | 315 | 0.0 | 1.0 | 0.00 | 0.00 | 0.00 | 74 | 1013.5 |
| 20260905092310 | 80 | 202 | 0.0 | 2.0 | 0.00 | 0.00 | 0.00 | 74 | 1013.6 |
| 20260905091804 | 79 | 206 | 1.0 | 3.0 | 0.00 | 0.00 | 0.00 | 74 | 1013.6 |
| 20260905091259 | 79 | 205 | 2.0 | 2.0 | 0.00 | 0.00 | 0.00 | 75 | 1013.5 |
| 20260905090757 | 79 | 204 | 0.0 | 2.0 | 0.00 | 0.00 | 0.00 | 74 | 1013.3 |
| 20260905090254 | 79 | 322 | 0.0 | 2.0 | 0.00 | 0.00 | 0.00 | 74 | 1013.2 |
| 20260905085753 | 80 | 343 | 1.0 | 2.0 | 0.00 | 0.00 | 0.00 | 73 | 1013.2 |
| 20260905085252 | 80 | 318 | 0.0 | 2.0 | 0.00 | 0.00 | 0.00 | 73 | 1013.2 |
| 20260905084747 | 80 | 283 | 0.0 | 2.0 | 0.00 | 0.00 | 0.00 | 73 | 1013.1 |
| 20260905084242 | 80 | 293 | 1.0 | 1.0 | 0.00 | 0.00 | 0.00 | 73 | 1013.1 |
| 20260905083737 | 80 | 154 | 0.0 | 2.0 | 0.00 | 0.00 | 0.00 | 72 | 1013.0 |
| 20260905083232 | 81 | 325 | 0.0 | 2.0 | 0.00 | 0.00 | 0.00 | 71 | 1013.0 |
| 20260905082728 | 81 | 207 | 0.0 | 2.0 | 0.00 | 0.00 | 0.00 | 71 | 1013.1 |
| 20260905082223 | 81 | 196 | 1.0 | 2.0 | 0.00 | 0.00 | 0.00 | 70 | 1013.2 |
| 20260905081718 | 81 | 232 | 0.0 | 3.0 | 0.00 | 0.00 | 0.00 | 71 | 1013.2 |
| 20260905081214 | 81 | 262 | 1.0 | 3.0 | 0.00 | 0.00 | 0.00 | 71 | 1013.2 |
| 20260905080713 | 81 | 197 | 1.0 | 3.0 | 0.00 | 0.00 | 0.00 | 71 | 1013.2 |
| 20260905080212 | 81 | 157 | 0.0 | 2.0 | 0.00 | 0.00 | 0.00 | 70 | 1013.2 |
| 20260905075712 | 81 | 197 | 0.0 | 2.0 | 0.00 | 0.00 | 0.00 | 71 | 1013.1 |
| 20260905075211 | 81 | 155 | 0.0 | 1.0 | 0.00 | 0.00 | 0.00 | 71 | 1013.2 |
| 20260905074710 | 81 | 228 | 0.0 | 1.0 | 0.00 | 0.00 | 0.00 | 70 | 1013.1 |
| 20260905074206 | 81 | 212 | 0.0 | 2.0 | 0.00 | 0.00 | 0.00 | 70 | 1013.3 |
| 20260905073702 | 81 | 269 | 0.0 | 1.0 | 0.00 | 0.00 | 0.00 | 70 | 1013.2 |
| 20260905073157 | 82 | 315 | 0.0 | 2.0 | 0.00 | 0.00 | 0.00 | 69 | 1013.2 |
| 20260905072656 | 82 | 178 | 0.0 | 2.0 | 0.00 | 0.00 | 0.00 | 69 | 1013.4 |
| 20260905072152 | 82 | 249 | 0.0 | 3.0 | 0.00 | 0.00 | 0.00 | 68 | 1013.1 |
| 20260905071648 | 82 | 48 | 0.0 | 2.0 | 0.00 | 0.00 | 0.00 | 68 | 1013.3 |
| 20260905071143 | 82 | 203 | 0.0 | 2.0 | 0.00 | 0.00 | 0.00 | 68 | 1013.3 |
| 20260905070638 | 83 | 210 | 1.0 | 2.0 | 0.00 | 0.00 | 0.00 | 68 | 1013.2 |
| 20260905070135 | 83 | 26 | 1.0 | 3.0 | 0.00 | 0.00 | 0.00 | 67 | 1013.3 |
| 20260905065633 | 83 | 153 | 3.0 | 3.0 | 0.00 | 0.00 | 0.00 | 67 | 1013.5 |
| 20260905065127 | 83 | 180 | 1.0 | 3.0 | 0.00 | 0.00 | 0.00 | 67 | 1013.3 |
| 20260905064623 | 83 | 182 | 1.0 | 2.0 | 0.00 | 0.00 | 0.00 | 67 | 1013.4 |
| 20260905064118 | 83 | 237 | 1.0 | 4.0 | 0.00 | 0.00 | 0.00 | 67 | 1013.4 |
| 20260905063611 | 83 | 260 | 1.0 | 2.0 | 0.00 | 0.00 | 0.00 | 67 | 1013.5 |
| 20260905063107 | 83 | 237 | 0.0 | 2.0 | 0.00 | 0.00 | 0.00 | 67 | 1013.4 |
| 20260905062603 | 83 | 269 | 0.0 | 1.0 | 0.00 | 0.00 | 0.00 | 66 | 1013.4 |
| 20260905062056 | 83 | 110 | 0.0 | 2.0 | 0.00 | 0.00 | 0.00 | 66 | 1013.4 |
| 20260905061552 | 84 | 117 | 0.0 | 1.0 | 0.00 | 0.00 | 0.00 | 65 | 1013.4 |
| 20260905061051 | 84 | 211 | 2.0 | 2.0 | 0.00 | 0.00 | 0.00 | 65 | 1013.4 |
| 20260905060547 | 84 | 223 | 0.0 | 1.0 | 0.00 | 0.00 | 0.00 | 64 | 1013.4 |
| 20260905060043 | 84 | 212 | 0.0 | 1.0 | 0.00 | 0.00 | 0.00 | 64 | 1013.5 |
| 20260905055541 | 85 | 229 | 1.0 | 3.0 | 0.00 | 0.00 | 0.00 | 63 | 1013.5 |
| 20260905055036 | 85 | 131 | 0.0 | 2.0 | 0.00 | 0.00 | 0.00 | 62 | 1013.4 |
| 20260905054531 | 85 | 109 | 0.0 | 3.0 | 0.00 | 0.00 | 0.00 | 62 | 1013.3 |
| 20260905054027 | 85 | 156 | 2.0 | 3.0 | 0.00 | 0.00 | 0.00 | 61 | 1013.3 |
| 20260905053521 | 86 | 336 | 1.0 | 3.0 | 0.00 | 0.00 | 0.00 | 61 | 1013.2 |
| 20260905053017 | 86 | 181 | 3.0 | 3.0 | 0.00 | 0.00 | 0.00 | 60 | 1013.2 |
| 20260905052515 | 86 | 184 | 0.0 | 3.0 | 0.00 | 0.00 | 0.00 | 60 | 1013.2 |
| 20260905052010 | 86 | 105 | 0.0 | 2.0 | 0.00 | 0.00 | 0.00 | 59 | 1013.3 |
| 20260905051506 | 86 | 184 | 2.0 | 3.0 | 0.00 | 0.00 | 0.00 | 59 | 1013.3 |
| 20260905051003 | 86 | 170 | 2.0 | 3.0 | 0.00 | 0.00 | 0.00 | 58 | 1013.2 |
| 20260905050458 | 87 | 122 | 2.0 | 5.0 | 0.00 | 0.00 | 0.00 | 58 | 1013.0 |
| 20260905045955 | 87 | 156 | 1.0 | 4.0 | 0.00 | 0.00 | 0.00 | 57 | 1013.2 |
| 20260905045450 | 87 | 141 | 1.0 | 3.0 | 0.00 | 0.00 | 0.00 | 56 | 1013.1 |
| 20260905044945 | 87 | 176 | 3.0 | 4.0 | 0.00 | 0.00 | 0.00 | 56 | 1013.2 |
| 20260905044444 | 87 | 135 | 1.0 | 4.0 | 0.00 | 0.00 | 0.00 | 55 | 1013.1 |
| 20260905043939 | 87 | 185 | 2.0 | 4.0 | 0.00 | 0.00 | 0.00 | 55 | 1013.1 |
| 20260905043438 | 87 | 195 | 0.0 | 4.0 | 0.00 | 0.00 | 0.00 | 54 | 1013.2 |
| 20260905042933 | 87 | 104 | 0.0 | 5.0 | 0.00 | 0.00 | 0.00 | 54 | 1013.3 |
| 20260905042427 | 87 | 161 | 2.0 | 4.0 | 0.00 | 0.00 | 0.00 | 54 | 1013.1 |
| 20260905041922 | 87 | 80 | 0.0 | 2.0 | 0.00 | 0.00 | 0.00 | 54 | 1013.0 |
| 20260905041413 | 88 | 82 | 2.0 | 4.0 | 0.00 | 0.00 | 0.00 | 53 | 1013.2 |
| 20260905040912 | 88 | 155 | 2.0 | 5.0 | 0.00 | 0.00 | 0.00 | 53 | 1013.1 |
| 20260905040407 | 88 | 207 | 3.0 | 3.0 | 0.00 | 0.00 | 0.00 | 53 | 1013.3 |
| 20260905035906 | 87 | 93 | 2.0 | 5.0 | 0.00 | 0.00 | 0.00 | 53 | 1013.3 |
| 20260905035402 | 87 | 102 | 1.0 | 3.0 | 0.00 | 0.00 | 0.00 | 54 | 1013.2 |
| 20260905034858 | 87 | 157 | 2.0 | 3.0 | 0.00 | 0.00 | 0.00 | 54 | 1013.4 |
| 20260905034354 | 87 | 144 | 0.0 | 2.0 | 0.00 | 0.00 | 0.00 | 54 | 1013.3 |
| 20260905033852 | 87 | 356 | 0.0 | 2.0 | 0.00 | 0.00 | 0.00 | 54 | 1013.1 |
| 20260905033348 | 87 | 170 | 0.0 | 2.0 | 0.00 | 0.00 | 0.00 | 53 | 1013.3 |
| 20260905032847 | 88 | 205 | 0.0 | 2.0 | 0.00 | 0.00 | 0.00 | 53 | 1013.3 |
| 20260905032343 | 88 | 156 | 0.0 | 1.0 | 0.00 | 0.00 | 0.00 | 53 | 1013.2 |
| 20260905031837 | 88 | 89 | 0.0 | 3.0 | 0.00 | 0.00 | 0.00 | 52 | 1013.1 |
| 20260905031333 | 88 | 162 | 0.0 | 3.0 | 0.00 | 0.00 | 0.00 | 52 | 1013.2 |
| 20260905030828 | 88 | 186 | 0.0 | 2.0 | 0.00 | 0.00 | 0.00 | 51 | 1013.0 |
| 20260905030324 | 89 | 257 | 0.0 | 3.0 | 0.00 | 0.00 | 0.00 | 51 | 1013.1 |
| 20260905025823 | 89 | 214 | 1.0 | 2.0 | 0.00 | 0.00 | 0.00 | 51 | 1013.1 |
| 20260905025319 | 89 | 44 | 0.0 | 3.0 | 0.00 | 0.00 | 0.00 | 50 | 1013.0 |
| 20260905024815 | 89 | 82 | 0.0 | 2.0 | 0.00 | 0.00 | 0.00 | 50 | 1013.0 |
| 20260905024310 | 89 | 195 | 0.0 | 3.0 | 0.00 | 0.00 | 0.00 | 49 | 1012.9 |
| 20260905023805 | 89 | 112 | 2.0 | 3.0 | 0.00 | 0.00 | 0.00 | 49 | 1012.9 |
| 20260905023300 | 90 | 117 | 2.0 | 4.0 | 0.00 | 0.00 | 0.00 | 48 | 1012.8 |
| 20260905022759 | 90 | 73 | 1.0 | 5.0 | 0.00 | 0.00 | 0.00 | 48 | 1012.6 |
| 20260905022255 | 90 | 140 | 2.0 | 4.0 | 0.00 | 0.00 | 0.00 | 48 | 1012.7 |
| 20260905021754 | 90 | 82 | 2.0 | 5.0 | 0.00 | 0.00 | 0.00 | 48 | 1012.5 |
| 20260905021249 | 91 | 123 | 1.0 | 3.0 | 0.00 | 0.00 | 0.00 | 47 | 1012.4 |
| 20260905020744 | 91 | 187 | 0.0 | 5.0 | 0.00 | 0.00 | 0.00 | 47 | 1012.5 |
| 20260905020239 | 91 | 122 | 3.0 | 3.0 | 0.00 | 0.00 | 0.00 | 47 | 1012.4 |
| 20260905015738 | 91 | 72 | 1.0 | 8.0 | 0.00 | 0.00 | 0.00 | 47 | 1012.1 |
| 20260905015233 | 91 | 112 | 2.0 | 5.0 | 0.00 | 0.00 | 0.00 | 47 | 1012.1 |
| 20260905014732 | 91 | 140 | 5.0 | 6.0 | 0.00 | 0.00 | 0.00 | 47 | 1012.2 |
| 20260905014227 | 91 | 124 | 2.0 | 4.0 | 0.00 | 0.00 | 0.00 | 47 | 1012.0 |
| 20260905013723 | 91 | 130 | 3.0 | 5.0 | 0.00 | 0.00 | 0.00 | 47 | 1011.9 |
| 20260905013219 | 92 | 139 | 5.0 | 5.0 | 0.00 | 0.00 | 0.00 | 47 | 1012.0 |
| 20260905012714 | 92 | 84 | 1.0 | 9.0 | 0.00 | 0.00 | 0.00 | 46 | 1011.9 |
| 20260905012210 | 92 | 131 | 5.0 | 7.0 | 0.00 | 0.00 | 0.00 | 46 | 1011.9 |
| 20260905011706 | 92 | 118 | 9.0 | 10.0 | 0.00 | 0.00 | 0.00 | 46 | 1011.7 |
| 20260905011201 | 92 | 106 | 4.0 | 7.0 | 0.00 | 0.00 | 0.00 | 46 | 1011.7 |
| 20260905010656 | 92 | 111 | 3.0 | 6.0 | 0.00 | 0.00 | 0.00 | 46 | 1011.7 |
| 20260905010151 | 92 | 147 | 2.0 | 7.0 | 0.00 | 0.00 | 0.00 | 46 | 1011.6 |
| 20260905005648 | 93 | 104 | 2.0 | 6.0 | 0.00 | 0.00 | 0.00 | 46 | 1011.6 |
| 20260905005143 | 93 | 112 | 0.0 | 5.0 | 0.00 | 0.00 | 0.00 | 46 | 1011.6 |
| 20260905004637 | 93 | 120 | 1.0 | 7.0 | 0.00 | 0.00 | 0.00 | 46 | 1011.3 |
| 20260905004132 | 93 | 92 | 2.0 | 6.0 | 0.00 | 0.00 | 0.00 | 45 | 1011.3 |
| 20260905003628 | 94 | 112 | 9.0 | 10.0 | 0.00 | 0.00 | 0.00 | 45 | 1011.5 |
| 20260905003124 | 94 | 50 | 2.0 | 9.0 | 0.00 | 0.00 | 0.00 | 45 | 1011.5 |
| 20260905002619 | 94 | 0 | 0.0 | 6.0 | 0.00 | 0.00 | 0.00 | 44 | 1011.3 |
| 20260905002114 | 95 | 260 | 0.0 | 9.0 | 0.00 | 0.00 | 0.00 | 44 | 1011.1 |
| 20260905001609 | 95 | 113 | 3.0 | 11.0 | 0.00 | 0.00 | 0.00 | 43 | 1011.0 |
| 20260905001108 | 96 | 76 | 0.0 | 6.0 | 0.00 | 0.00 | 0.00 | 43 | 1011.0 |
| 20260905000603 | 96 | 62 | 2.0 | 4.0 | 0.00 | 0.00 | 0.00 | 43 | 1011.2 |
| 20260905000100 | 96 | 130 | 6.0 | 7.0 | 0.00 | 0.00 | 0.00 | 42 | 1011.0 |
| 20260904235554 | 96 | 94 | 1.0 | 7.0 | 0.00 | 0.00 | 0.00 | 42 | 1011.1 |
| 20260904235054 | 97 | 118 | 6.0 | 6.0 | 0.00 | 0.00 | 0.00 | 39 | 1011.0 |
| 20260904234549 | 98 | 175 | 7.0 | 10.0 | 0.00 | 0.00 | 0.00 | 38 | 1011.1 |
| 20260904234044 | 98 | 187 | 2.0 | 5.0 | 0.00 | 0.00 | 0.00 | 38 | 1011.1 |
| 20260904233539 | 98 | 81 | 2.0 | 5.0 | 0.00 | 0.00 | 0.00 | 38 | 1011.1 |
| 20260904233036 | 98 | 161 | 4.0 | 7.0 | 0.00 | 0.00 | 0.00 | 38 | 1010.9 |
| 20260904232532 | 99 | 196 | 4.0 | 6.0 | 0.00 | 0.00 | 0.00 | 38 | 1010.9 |
| 20260904232028 | 99 | 216 | 3.0 | 8.0 | 0.00 | 0.00 | 0.00 | 38 | 1011.0 |
| 20260904231524 | 99 | 127 | 5.0 | 5.0 | 0.00 | 0.00 | 0.00 | 38 | 1011.0 |
| 20260904231019 | 98 | 151 | 3.0 | 6.0 | 0.00 | 0.00 | 0.00 | 37 | 1011.2 |
| 20260904230518 | 99 | 66 | 4.0 | 5.0 | 0.00 | 0.00 | 0.00 | 38 | 1011.0 |
| 20260904230014 | 99 | 113 | 4.0 | 4.0 | 0.00 | 0.00 | 0.00 | 37 | 1011.5 |
| 20260904225511 | 99 | 260 | 1.0 | 8.0 | 0.00 | 0.00 | 0.00 | 38 | 1011.2 |
| 20260904225010 | 98 | 158 | 4.0 | 10.0 | 0.00 | 0.00 | 0.00 | 38 | 1011.0 |
| 20260904224506 | 98 | 211 | 3.0 | 11.0 | 0.00 | 0.00 | 0.00 | 38 | 1011.2 |
| 20260904224006 | 99 | 176 | 4.0 | 9.0 | 0.00 | 0.00 | 0.00 | 37 | 1011.2 |
| 20260904223505 | 99 | 179 | 4.0 | 8.0 | 0.00 | 0.00 | 0.00 | 37 | 1011.2 |
| 20260904223001 | 100 | 155 | 2.0 | 9.0 | 0.00 | 0.00 | 0.00 | 37 | 1011.2 |
| 20260904222455 | 100 | 124 | 0.0 | 5.0 | 0.00 | 0.00 | 0.00 | 36 | 1011.1 |
| 20260904221950 | 99 | 211 | 1.0 | 8.0 | 0.00 | 0.00 | 0.00 | 37 | 1011.1 |
| 20260904221445 | 100 | 98 | 3.0 | 7.0 | 0.00 | 0.00 | 0.00 | 36 | 1011.2 |
| 20260904220940 | 100 | 283 | 3.0 | 7.0 | 0.00 | 0.00 | 0.00 | 37 | 1011.5 |
| 20260904220440 | 98 | 239 | 3.0 | 6.0 | 0.00 | 0.00 | 0.00 | 38 | 1011.6 |
| 20260904215935 | 99 | 224 | 5.0 | 9.0 | 0.00 | 0.00 | 0.00 | 37 | 1011.5 |
| 20260904215430 | 99 | 196 | 3.0 | 7.0 | 0.00 | 0.00 | 0.00 | 37 | 1011.5 |
| 20260904214926 | 98 | 208 | 0.0 | 4.0 | 0.00 | 0.00 | 0.00 | 38 | 1011.5 |
| 20260904214422 | 100 | 163 | 7.0 | 8.0 | 0.00 | 0.00 | 0.00 | 36 | 1011.5 |
| 20260904213921 | 100 | 29 | 1.0 | 10.0 | 0.00 | 0.00 | 0.00 | 36 | 1011.7 |
| 20260904213415 | 100 | 189 | 7.0 | 10.0 | 0.00 | 0.00 | 0.00 | 36 | 1011.5 |
| 20260904212911 | 100 | 206 | 7.0 | 8.0 | 0.00 | 0.00 | 0.00 | 36 | 1011.8 |
| 20260904212410 | 100 | 176 | 5.0 | 5.0 | 0.00 | 0.00 | 0.00 | 37 | 1011.8 |
| 20260904211906 | 100 | 133 | 6.0 | 6.0 | 0.00 | 0.00 | 0.00 | 36 | 1011.7 |
| 20260904211400 | 99 | 174 | 4.0 | 8.0 | 0.00 | 0.00 | 0.00 | 38 | 1011.8 |
| 20260904210855 | 100 | 132 | 3.0 | 10.0 | 0.00 | 0.00 | 0.00 | 37 | 1011.9 |
| 20260904210354 | 100 | 247 | 3.0 | 8.0 | 0.00 | 0.00 | 0.00 | 38 | 1012.0 |
| 20260904205851 | 99 | 206 | 5.0 | 10.0 | 0.00 | 0.00 | 0.00 | 38 | 1011.9 |
| 20260904205346 | 99 | 161 | 2.0 | 10.0 | 0.00 | 0.00 | 0.00 | 38 | 1012.2 |
| 20260904204843 | 99 | 249 | 2.0 | 8.0 | 0.00 | 0.00 | 0.00 | 39 | 1012.1 |
| 20260904204339 | 98 | 255 | 3.0 | 4.0 | 0.00 | 0.00 | 0.00 | 39 | 1012.1 |
| 20260904203835 | 98 | 193 | 8.0 | 15.0 | 0.00 | 0.00 | 0.00 | 39 | 1012.2 |
| 20260904203331 | 98 | 184 | 5.0 | 12.0 | 0.00 | 0.00 | 0.00 | 40 | 1012.3 |
| 20260904202826 | 98 | 180 | 2.0 | 9.0 | 0.00 | 0.00 | 0.00 | 41 | 1012.5 |
| 20260904202323 | 98 | 173 | 2.0 | 15.0 | 0.00 | 0.00 | 0.00 | 42 | 1012.4 |
| 20260904201818 | 98 | 188 | 9.0 | 11.0 | 0.00 | 0.00 | 0.00 | 42 | 1012.5 |
| 20260904201313 | 98 | 184 | 5.0 | 7.0 | 0.00 | 0.00 | 0.00 | 40 | 1012.5 |
| 20260904200808 | 97 | 59 | 0.0 | 10.0 | 0.00 | 0.00 | 0.00 | 42 | 1012.6 |
| 20260904200302 | 98 | 155 | 5.0 | 13.0 | 0.00 | 0.00 | 0.00 | 42 | 1012.9 |
| 20260904195801 | 98 | 216 | 5.0 | 5.0 | 0.00 | 0.00 | 0.00 | 42 | 1012.9 |
| 20260904195300 | 97 | 96 | 3.0 | 11.0 | 0.00 | 0.00 | 0.00 | 42 | 1013.1 |
| 20260904194755 | 97 | 58 | 0.0 | 11.0 | 0.00 | 0.00 | 0.00 | 44 | 1013.0 |
| 20260904194254 | 96 | 255 | 2.0 | 9.0 | 0.00 | 0.00 | 0.00 | 43 | 1013.1 |
| 20260904193750 | 97 | 166 | 4.0 | 14.0 | 0.00 | 0.00 | 0.00 | 42 | 1012.9 |
| 20260904193245 | 97 | 188 | 5.0 | 11.0 | 0.00 | 0.00 | 0.00 | 41 | 1013.1 |
| 20260904192740 | 97 | 91 | 2.0 | 5.0 | 0.00 | 0.00 | 0.00 | 42 | 1013.1 |
| 20260904192236 | 96 | 327 | 2.0 | 5.0 | 0.00 | 0.00 | 0.00 | 42 | 1013.3 |
| 20260904191732 | 97 | 164 | 6.0 | 12.0 | 0.00 | 0.00 | 0.00 | 40 | 1013.3 |